Wenatchee, WA

3:16 AM PDT on September 20, 2017 (GMT -0700)
Pangborn Memorial

Weather History for KEAT - April, 2013

Change the Weather History Date:

Wednesday, April 24, 2013

  Actual Average Record
Temperature  
Mean Temperature 45 °F 48 °F  
Max Temperature 63 °F 60 °F 93 °F (1977)
Min Temperature 27 °F 36 °F 28 °F (1985)
Degree Days  
Heating Degree Days 20 17  
Month to date heating degree days 512 472  
Since 1 July heating degree days 6154 6480  
Cooling Degree Days 0 0  
Month to date cooling degree days 0 0  
Year to date cooling degree days 0 0  
Growing Degree Days 4 (Base 50)    
Moisture  
Dew Point 26 °F    
Average Humidity 35    
Maximum Humidity 65    
Minimum Humidity 15    
Precipitation  
Precipitation 0.00 in 0.04 in 0.43 in (2003)
Month to date precipitation 0.96 1.02  
Year to date precipitation 3.72 6.06  
Snow  
Snow 0.00 in 0.00 in - ()
Month to date snowfall T 1.8  
Since 1 July snowfall 48.2 53.5  
Snow Depth 0.00 in    
Sea Level Pressure  
Sea Level Pressure 30.15 in    
Wind  
Wind Speed 7 mph (WNW)    
Max Wind Speed 25 mph    
Max Gust Speed 31 mph    
Visibility 10 miles    
Events      
T = Trace of Precipitation, MM = Missing Value Source: NWS Daily Summary

Daily Weather History Graph

Daily Weather History Graph

Search for Another Location

Airport or City:

Trip Planner

Search our weather history database for the weather conditions in past years. The results will help you decide how hot, cold, wet, or windy it might be!

Date:

Astronomy

Apr. 24, 2013 Rise Set
Actual Time 5:55 AM PDT 8:03 PM PDT
Civil Twilight 5:22 AM PDT 8:36 PM PDT
Nautical Twilight 4:40 AM PDT 9:18 PM PDT
Astronomical Twilight 3:54 AM PDT 10:04 PM PDT
Moon 7:10 PM PDT (4/24) 5:06 AM PDT (4/24)
Length of Visible Light 15h 14m
Length of Day
14h 07m
Waxing Gibbous, 98% of the Moon is Illuminated
Apr 24
Waxing Gibbous
Apr 25
Full
May 2
Last Quarter
May 9
New
May 17
First Quarter

Hourly Weather History & Observations

Time (PDT) Temp. Windchill Dew Point Humidity Pressure Visibility Wind Dir Wind Speed Gust Speed Precip Events Conditions
12:55 AM 46.9 °F - 25.0 °F 42% 30.30 in 10.0 mi NW 9.2 mph - N/A   Clear
1:55 AM 45.0 °F 40.6 °F 25.0 °F 46% 30.31 in 10.0 mi WNW 8.1 mph - N/A   Clear
2:55 AM 43.0 °F 41.3 °F 26.1 °F 51% 30.31 in 10.0 mi North 3.5 mph - N/A   Clear
3:55 AM 41.0 °F 37.1 °F 27.0 °F 57% 30.32 in 10.0 mi NW 5.8 mph - N/A   Clear
4:55 AM 41.0 °F 35.2 °F 27.0 °F 57% 30.32 in 10.0 mi WNW 9.2 mph - N/A   Clear
5:55 AM 37.9 °F - 27.0 °F 65% 30.31 in 10.0 mi Calm Calm - N/A   Clear
6:55 AM 39.9 °F 35.8 °F 27.0 °F 60% 30.32 in 10.0 mi NNW 5.8 mph - N/A   Clear
7:55 AM 43.0 °F - 28.0 °F 56% 30.31 in 10.0 mi Calm Calm - N/A   Clear
8:55 AM 46.0 °F 43.1 °F 28.9 °F 51% 30.30 in 10.0 mi WNW 5.8 mph - N/A   Clear
9:55 AM 51.1 °F - 28.9 °F 43% 30.28 in 10.0 mi SW 3.5 mph - N/A   Clear
10:55 AM 55.0 °F - 30.0 °F 38% 30.25 in 10.0 mi Calm Calm - N/A   Clear
11:55 AM 61.0 °F - 28.0 °F 29% 30.20 in 10.0 mi East 6.9 mph - N/A   Clear
12:55 PM 64.9 °F - 25.0 °F 22% 30.16 in 10.0 mi Variable 5.8 mph - N/A   Clear
1:55 PM 66.0 °F - 25.0 °F 21% 30.13 in 10.0 mi WNW 4.6 mph - N/A   Clear
2:55 PM 68.0 °F - 26.1 °F 21% 30.09 in 10.0 mi Calm Calm - N/A   Clear
3:55 PM 70.0 °F - 26.1 °F 19% 30.04 in 10.0 mi Calm Calm - N/A   Clear
4:55 PM 71.1 °F - 26.1 °F 19% 30.01 in 10.0 mi Calm Calm - N/A   Clear
5:55 PM 70.0 °F - 25.0 °F 18% 29.98 in 10.0 mi SSW 5.8 mph - N/A   Clear
6:55 PM 69.1 °F - 19.0 °F 15% 29.96 in 10.0 mi WNW 11.5 mph - N/A   Clear
7:55 PM 64.9 °F - 21.9 °F 19% 29.97 in 10.0 mi WNW 18.4 mph - N/A   Clear
8:55 PM 61.0 °F - 24.1 °F 24% 29.96 in 10.0 mi WNW 19.6 mph - N/A   Clear
9:55 PM 59.0 °F - 25.0 °F 27% 29.95 in 10.0 mi WNW 17.3 mph - N/A   Clear
10:55 PM 57.0 °F - 21.9 °F 26% 29.94 in 10.0 mi NW 20.7 mph - N/A   Clear
11:55 PM 57.9 °F - 21.0 °F 24% 29.94 in 10.0 mi WNW 25.3 mph 31.1 mph N/A   Clear